This is the latest recevied weather packets stored in our database for station/object W5ITZ. If no packets are shown the sender has not sent any weather packets the latest 10 day(s).
| Time | Temp. | Humidity | Pressure | Rain* | Wind** | Luminosity | Snow |
|---|---|---|---|---|---|---|---|
| 1787683887 | 35.56° C | 45% | 1016.1 hPa | 0 mm | - | 980 W/m² | - |
| 1787683582 | 35° C | 46% | 1016.4 hPa | 0 mm | - | 991 W/m² | - |
| 1787683277 | 35° C | 46% | 1016.2 hPa | 0 mm | - | 980 W/m² | - |
| 1787682975 | 35° C | 48% | 1016.3 hPa | 0 mm | - | 992 W/m² | - |
| 1787682670 | 35° C | 48% | 1016.1 hPa | 0 mm | - | 1024 W/m² | - |
| 1787682365 | 35.56° C | 46% | 1016.6 hPa | 0 mm | - | 278 W/m² | - |
| 1787682061 | 35.56° C | 46% | 1016.4 hPa | 0 mm | - | 983 W/m² | - |
| 1787681756 | 34.44° C | 48% | 1016.8 hPa | 0 mm | - | 988 W/m² | - |
| 1787681450 | 34.44° C | 49% | 1016.8 hPa | 0 mm | - | 242 W/m² | - |
| 1787681145 | 33.89° C | 51% | 1016.6 hPa | 0 mm | - | 1015 W/m² | - |
| 1787680840 | 33.89° C | 52% | 1016.9 hPa | 0 mm | - | 1051 W/m² | - |
| 1787680535 | 33.89° C | 53% | 1016.8 hPa | 0 mm | - | 375 W/m² | - |
| 1787680234 | 34.44° C | 52% | 1017 hPa | 0 mm | - | 952 W/m² | - |
| 1787679933 | 34.44° C | 53% | 1016.6 hPa | 0 mm | - | 995 W/m² | - |
| 1787679627 | 35° C | 51% | 1016.9 hPa | 0 mm | - | 960 W/m² | - |
| 1787679323 | 34.44° C | 51% | 1016.9 hPa | 0 mm | - | 938 W/m² | - |
| 1787679019 | 34.44° C | 52% | 1017.1 hPa | 0 mm | - | 925 W/m² | - |
| 1787678719 | 34.44° C | 53% | 1017.1 hPa | 0 mm | - | 935 W/m² | - |
| 1787678413 | 33.89° C | 54% | 1017.4 hPa | 0 mm | - | 915 W/m² | - |
| 1787678109 | 33.89° C | 54% | 1017.2 hPa | 0 mm | - | 908 W/m² | - |
| 1787677808 | 33.89° C | 53% | 1017.6 hPa | 0 mm | - | 900 W/m² | - |
| 1787677503 | 33.89° C | 53% | 1017.5 hPa | 0 mm | - | 897 W/m² | - |
| 1787677202 | 33.33° C | 51% | 1017.5 hPa | 0 mm | - | 875 W/m² | - |
| 1787676901 | 33.33° C | 53% | 1017.7 hPa | 0 mm | - | 879 W/m² | - |
| 1787676596 | 33.33° C | 55% | 1017.6 hPa | 0 mm | - | 878 W/m² | - |
* Rain latest hour (hover to see other rain measurements)
** Current wind speed in m/s (hover to see current wind gust speed)